This is the latest recevied weather packets stored in our database for station/object G4MDP-13. If no packets are shown the sender has not sent any weather packets the latest 10 day(s).
| Time | Temp. | Humidity | Pressure | Rain* | Wind** | Luminosity | Snow |
|---|---|---|---|---|---|---|---|
| 1778154767 | 16.67° C | 50% | 1010 hPa | 0 mm | - | - | - |
| 1778153868 | 16.11° C | 52% | 1010.3 hPa | 0 mm | - | - | - |
| 1778153027 | 16.67° C | 51% | 1010.1 hPa | 0 mm | - | - | - |
| 1778152967 | 16.67° C | 52% | 1010.1 hPa | 0 mm | - | - | - |
| 1778152068 | 15.56° C | 55% | 1010.1 hPa | 0 mm | - | - | - |
| 1778151587 | 15.56° C | 55% | 1010.4 hPa | 0 mm | - | - | - |
| 1778151348 | 15° C | 58% | 1010.2 hPa | 0 mm | - | - | - |
| 1778151227 | 15° C | 55% | 1010.4 hPa | 0 mm | - | - | - |
| 1778151217 | 15° C | 55% | 1010.4 hPa | 0 mm | - | - | - |
| 1778151217 | 15° C | 55% | 1010.4 hPa | 0 mm | - | - | - |
| 1778151208 | 15° C | 55% | 1010.4 hPa | 0 mm | - | - | - |
| 1778151208 | 15° C | 55% | 1010.4 hPa | 0 mm | - | - | - |
| 1778150957 | 15.56° C | 56% | 1010.4 hPa | 0 mm | - | - | - |
| 1778150117 | 15° C | 60% | 1010.5 hPa | 0 mm | - | - | - |
| 1778150057 | 15° C | 60% | 1010.6 hPa | 0 mm | - | - | - |
| 1778149157 | 14.44° C | 59% | 1010.5 hPa | 0 mm | - | - | - |
| 1778148317 | 15° C | 58% | 1010.5 hPa | 0 mm | - | - | - |
| 1778148257 | 15° C | 58% | 1010.5 hPa | 0 mm | - | - | - |
| 1778147357 | 15.56° C | 57% | 1010.4 hPa | 0 mm | - | - | - |
| 1778146517 | 15° C | 56% | 1010.6 hPa | 0 mm | - | - | - |
| 1778146458 | 15° C | 56% | 1010.4 hPa | 0 mm | - | - | - |
| 1778145557 | 15.56° C | 55% | 1010.3 hPa | 0 mm | - | - | - |
| 1778144717 | 15° C | 57% | 1010.5 hPa | 0 mm | - | - | - |
| 1778144657 | 15° C | 57% | 1010.3 hPa | 0 mm | - | - | - |
| 1778143757 | 14.44° C | 58% | 1010.6 hPa | 0 mm | - | - | - |
* Rain latest hour (hover to see other rain measurements)
** Current wind speed in m/s (hover to see current wind gust speed)